Graham, TX

3:12 AM CST on February 10, 2016 (GMT -0600)
Graham

Weather History for KRPH - July, 2013

Change the Weather History Date:

Wednesday, July 10, 2013

  Actual Average Record
Temperature  
Mean Temperature 91 °F -  
Max Temperature 104 °F - - ()
Min Temperature 79 °F - - ()
Cooling Degree Days 26    
Growing Degree Days 41 (Base 50)    
Moisture  
Dew Point 61 °F    
Average Humidity 39    
Maximum Humidity 62    
Minimum Humidity 22    
Precipitation  
Precipitation 0.00 in - - ()
Sea Level Pressure  
Sea Level Pressure 29.99 in    
Wind  
Wind Speed 6 mph (South)    
Max Wind Speed 12 mph    
Max Gust Speed 18 mph    
Visibility 10 miles    
Events      
T = Trace of Precipitation, MM = Missing Value Source: NWS Daily Summary

Daily Weather History Graph

Daily Weather History Graph

Search for Another Location

Airport or City:

Trip Planner

Search our weather history database for the weather conditions in past years. The results will help you decide how hot, cold, wet, or windy it might be!

Date:

Astronomy

Jul. 10, 2013 Rise Set
Actual Time 6:33 AM CDT 8:45 PM CDT
Civil Twilight 6:05 AM CDT 9:13 PM CDT
Nautical Twilight 5:30 AM CDT 9:48 PM CDT
Astronomical Twilight 4:53 AM CDT 10:25 PM CDT
Moon 8:46 AM CDT 10:07 PM CDT
Length of Visible Light 15h 08m
Length of Day
14h 12m
Waxing Crescent, 5% of the Moon is Illuminated
Jul 10
Waxing Crescent
Jul 15
First Quarter
Jul 22
Full
Jul 29
Last Quarter
Aug 6
New

Hourly Weather History & Observations

Time (CDT) Temp. Heat Index Dew Point Humidity Pressure Visibility Wind Dir Wind Speed Gust Speed Precip Events Conditions
12:15 AM 86.4 °F 85.6 °F 58.5 °F 39% 30.02 in 10.0 mi SSE 4.6 mph - N/A   Clear
12:35 AM 85.5 °F 85.0 °F 59.0 °F 41% 30.02 in 10.0 mi SE 3.5 mph - N/A   Clear
12:55 AM 85.1 °F 84.6 °F 59.0 °F 41% 30.03 in 10.0 mi SSE 4.6 mph - N/A   Clear
1:15 AM 84.7 °F 84.4 °F 59.4 °F 42% 30.03 in 10.0 mi SSE 4.6 mph - N/A   Clear
1:35 AM 84.2 °F 84.0 °F 59.5 °F 43% 30.03 in 10.0 mi SSE 3.5 mph - N/A   Clear
1:55 AM 83.7 °F 83.6 °F 59.9 °F 44% 30.03 in 10.0 mi SSE 3.5 mph - N/A   Clear
2:15 AM 82.8 °F 83.0 °F 59.9 °F 46% 30.02 in 10.0 mi SSE 3.5 mph - N/A   Clear
2:55 AM 81.5 °F 82.0 °F 60.3 °F 48% 30.02 in 10.0 mi South 3.5 mph - N/A   Clear
3:15 AM 80.8 °F 81.4 °F 60.3 °F 49% 30.01 in 10.0 mi South 3.5 mph - N/A   Clear
3:35 AM 80.6 °F 81.4 °F 60.3 °F 50% 30.01 in 10.0 mi SSE 4.6 mph - N/A   Clear
3:55 AM 80.6 °F 81.4 °F 60.4 °F 50% 30.02 in 10.0 mi SSE 4.6 mph - N/A   Clear
4:15 AM 80.6 °F 81.5 °F 60.8 °F 51% 30.02 in 10.0 mi SSE 3.5 mph - N/A   Clear
4:35 AM 80.6 °F 81.5 °F 60.8 °F 51% 30.03 in 10.0 mi SSE 4.6 mph - N/A   Clear
4:55 AM 80.6 °F 81.6 °F 61.3 °F 52% 30.03 in 10.0 mi South 4.6 mph - N/A   Clear
5:15 AM 80.6 °F 81.7 °F 61.9 °F 53% 30.03 in 10.0 mi South 3.5 mph - N/A   Clear
5:35 AM 80.4 °F 81.7 °F 63.0 °F 55% 30.03 in 10.0 mi South 5.8 mph - N/A   Clear
5:55 AM 80.2 °F 81.9 °F 64.0 °F 58% 30.04 in 10.0 mi South 4.6 mph - N/A   Clear
6:15 AM 80.1 °F 81.9 °F 64.9 °F 60% 30.04 in 10.0 mi South 4.6 mph - N/A   Clear
6:35 AM 80.1 °F 82.0 °F 65.5 °F 61% 30.05 in 10.0 mi South 4.6 mph - N/A   Clear
6:55 AM 79.9 °F - 65.7 °F 62% 30.05 in 10.0 mi South 6.9 mph - N/A   Clear
7:15 AM 80.6 °F 82.7 °F 66.2 °F 61% 30.05 in 10.0 mi South 6.9 mph - N/A   Clear
7:35 AM 81.1 °F 83.4 °F 66.4 °F 61% 30.05 in 10.0 mi South 6.9 mph - N/A   Clear
7:55 AM 82.0 °F 84.5 °F 66.7 °F 60% 30.06 in 10.0 mi South 8.1 mph - N/A   Clear
8:15 AM 81.9 °F 84.4 °F 67.1 °F 61% 30.06 in 10.0 mi South 8.1 mph - N/A   Clear
8:35 AM 82.8 °F 85.3 °F 67.1 °F 59% 30.07 in 10.0 mi SSW 8.1 mph - N/A   Clear
8:55 AM 84.2 °F 87.1 °F 67.5 °F 57% 30.06 in 10.0 mi SSW 10.4 mph - N/A   Clear
9:15 AM 84.7 °F 87.6 °F 67.5 °F 56% 30.07 in 10.0 mi SSW 6.9 mph 16.1 mph N/A   Clear
9:35 AM 86.5 °F 89.6 °F 67.5 °F 53% 30.07 in 10.0 mi SSW 8.1 mph - N/A   Clear
9:55 AM 87.3 °F 90.5 °F 67.5 °F 52% 30.07 in 10.0 mi SSW 10.4 mph - N/A   Clear
10:15 AM 89.8 °F 93.3 °F 67.5 °F 48% 30.06 in 10.0 mi SSW 9.2 mph - N/A   Clear
10:35 AM 91.4 °F 94.5 °F 66.4 °F 44% 30.05 in 10.0 mi SSW 9.2 mph 18.4 mph N/A   Clear
10:55 AM 92.3 °F 95.1 °F 66.0 °F 42% 30.06 in 10.0 mi SSW 6.9 mph - N/A   Clear
11:15 AM 93.2 °F 95.8 °F 65.3 °F 40% 30.06 in 10.0 mi SW 9.2 mph 17.3 mph N/A   Clear
11:35 AM 93.9 °F 96.1 °F 64.6 °F 38% 30.06 in 10.0 mi SW 9.2 mph - N/A   Clear
11:55 AM 95.5 °F 96.9 °F 63.3 °F 34% 30.05 in 10.0 mi South 8.1 mph - N/A   Clear
12:15 PM 94.8 °F 96.2 °F 63.0 °F 35% 30.05 in 10.0 mi WSW 8.1 mph - N/A   Scattered Clouds
12:35 PM 96.6 °F 98.2 °F 62.8 °F 33% 30.04 in 10.0 mi WSW 3.5 mph - N/A   Scattered Clouds
12:55 PM 97.3 °F 98.4 °F 62.4 °F 31% 30.03 in 10.0 mi SSW 11.5 mph - N/A   Scattered Clouds
1:15 PM 98.4 °F 99.7 °F 61.9 °F 30% 30.03 in 10.0 mi SW 8.1 mph - N/A   Scattered Clouds
1:35 PM 98.4 °F 99.7 °F 62.1 °F 30% 30.02 in 10.0 mi WSW 6.9 mph - N/A   Scattered Clouds
1:55 PM 99.9 °F 100.9 °F 61.0 °F 28% 30.01 in 10.0 mi SSW 5.8 mph - N/A   Scattered Clouds
2:15 PM 100.4 °F 101.8 °F 61.5 °F 28% 30.01 in 10.0 mi SE 8.1 mph - N/A   Scattered Clouds
2:35 PM 98.1 °F 98.6 °F 60.4 °F 29% 30.00 in 10.0 mi SSE 9.2 mph - N/A   Scattered Clouds
2:55 PM 99.9 °F 100.4 °F 60.1 °F 27% 29.99 in 10.0 mi ESE 6.9 mph - N/A   Scattered Clouds
3:15 PM 101.7 °F 102.2 °F 59.2 °F 25% 29.98 in 10.0 mi SSW 5.8 mph - N/A   Scattered Clouds
3:35 PM 102.0 °F 102.7 °F 59.9 °F 25% 29.97 in 10.0 mi SSE 5.8 mph - N/A   Scattered Clouds
3:55 PM 101.8 °F 102.4 °F 59.4 °F 25% 29.97 in 10.0 mi WSW 6.9 mph - N/A   Clear
4:15 PM 103.3 °F 103.5 °F 58.8 °F 23% 29.96 in 10.0 mi SW 5.8 mph - N/A   Scattered Clouds
4:35 PM 101.8 °F 101.4 °F 57.4 °F 23% 29.95 in 10.0 mi South 8.1 mph - N/A   Scattered Clouds
4:55 PM 102.0 °F 101.6 °F 58.1 °F 23% 29.94 in 10.0 mi SE 5.8 mph - N/A   Clear
5:15 PM 101.8 °F 101.9 °F 58.6 °F 24% 29.92 in 10.0 mi ESE 6.9 mph - N/A   Scattered Clouds
5:35 PM 103.6 °F 103.5 °F 57.7 °F 22% 29.92 in 10.0 mi SSW 5.8 mph - N/A   Mostly Cloudy
5:55 PM 102.6 °F 102.4 °F 57.9 °F 23% 29.91 in 10.0 mi South 8.1 mph - N/A   Mostly Cloudy
6:15 PM 101.5 °F 100.8 °F 57.7 °F 23% 29.90 in 10.0 mi SSE 4.6 mph - N/A   Scattered Clouds
6:35 PM 100.9 °F 100.5 °F 58.1 °F 24% 29.89 in 10.0 mi SE 5.8 mph - N/A   Clear
6:55 PM 100.6 °F 100.0 °F 57.9 °F 24% 29.90 in 10.0 mi SE 8.1 mph - N/A   Clear
7:15 PM 100.2 °F 99.5 °F 57.7 °F 24% 29.90 in 10.0 mi SE 5.8 mph - N/A   Clear
7:35 PM 99.7 °F 99.2 °F 58.3 °F 25% 29.90 in 10.0 mi SE 4.6 mph - N/A   Clear
7:55 PM 99.5 °F 98.9 °F 58.1 °F 25% 29.90 in 10.0 mi SSE 4.6 mph - N/A   Clear
8:15 PM 97.9 °F 97.0 °F 57.9 °F 26% 29.89 in 10.0 mi SSE 3.5 mph - N/A   Clear
8:35 PM 96.4 °F 95.3 °F 57.4 °F 27% 29.89 in 10.0 mi SE 4.6 mph - N/A   Clear
8:55 PM 95.0 °F 93.7 °F 57.0 °F 28% 29.90 in 10.0 mi SE 3.5 mph - N/A   Scattered Clouds
9:15 PM 93.2 °F 91.6 °F 56.8 °F 29% 29.90 in 10.0 mi Calm Calm - N/A   Scattered Clouds
9:35 PM 91.4 °F 89.9 °F 56.8 °F 31% 29.90 in 10.0 mi ESE 3.5 mph - N/A   Clear
9:55 PM 90.0 °F 88.6 °F 57.2 °F 33% 29.91 in 10.0 mi ESE 4.6 mph - N/A   Clear
10:15 PM 89.8 °F 88.4 °F 56.8 °F 33% 29.92 in 10.0 mi ESE 4.6 mph - N/A   Scattered Clouds
10:35 PM 90.5 °F 89.0 °F 56.5 °F 32% 29.93 in 10.0 mi ESE 5.8 mph - N/A   Scattered Clouds
10:55 PM 89.6 °F 88.1 °F 57.0 °F 33% 29.93 in 10.0 mi SE 6.9 mph - N/A   Clear
11:15 PM 90.5 °F 89.3 °F 57.7 °F 33% 29.93 in 10.0 mi SE 6.9 mph - N/A   Clear
11:35 PM 89.8 °F 88.6 °F 58.1 °F 34% 29.94 in 10.0 mi ESE 5.8 mph - N/A   Clear
11:55 PM 89.1 °F 88.0 °F 58.3 °F 35% 29.95 in 10.0 mi SE 6.9 mph - N/A   Clear